Location: Observatoire de l'Aigle
(47.0607°N, 71.3152°W)
Time: 21:29:48
(UTC-04:00)

Amateur Radio Satellites - All Passes

Search period start: 30 September 2016 20:59
Search period end: 01 October 2016 20:59
Location: Observatoire de l'Aigle, 47.0607°N, 71.3152°W

Satellite Date Start Highest point End Downlink Frequencies (MHz)
Time Altitude Azimuth
SEEDS 30 Sep 21:03:04 21:06:19 21° 268° (W) 21:09:36 437.485
UWE-3 30 Sep 21:04:58 21:09:01 51° 260° (W) 21:13:05 435.000/436.395/437.385
CUSAT 1 30 Sep 21:06:53 21:12:01 20° 306° (NW) 21:17:34 437.405
CUTE 1.7 + AOD 2 30 Sep 21:08:42 21:11:00 14° 271° (W) 21:13:20 437.475
CANX-2 30 Sep 21:11:24 21:13:01 12° 273° (W) 21:14:39 2200.000
AAUSAT CUBESAT 2 30 Sep 21:15:59 21:19:32 27° 266° (W) 21:23:08 437.432
Oscar 11 30 Sep 21:18:43 21:22:58 61° 259° (W) 21:27:17 145.826/435.025
HUMSAT D 30 Sep 21:19:50 21:23:26 30° 68° (ENE) 21:27:05 437.325/437.525
DANDE 30 Sep 21:24:43 21:29:48 27° 302° (WNW) 21:35:55 436.750
ZACube-1 30 Sep 21:27:10 21:31:09 46° 261° (W) 21:35:11 437.345
Cosmos 2499 30 Sep 21:38:35 21:44:07 22° 280° (W) 21:49:56 435.465 / 435.565
STRAND 1 30 Sep 21:41:28 21:45:22 22° 300° (WNW) 21:49:14 437.568
SO-50 30 Sep 21:47:43 21:51:37 26° 37° (NE) 21:55:26 436.795
DELFI C3 30 Sep 22:08:08 22:11:56 41° 262° (W) 22:15:46 145.870
GONETS M04 30 Sep 22:08:24 22:12:54 15° 288° (WNW) 22:17:24
ISS 30 Sep 22:12:43 22:15:47 36° 354° (N) 22:18:52 145.825
AO-85 30 Sep 22:21:22 22:25:37 27° 321° (NW) 22:29:37 145.980
FUNcube-1 30 Sep 22:21:25 22:23:49 15° 270° (W) 22:26:12 145.935
UNISAT 6 30 Sep 22:22:48 22:26:36 27° 95° (E) 22:30:27 437.425
CUBEBUG 1 30 Sep 22:33:18 22:36:45 23° 64° (ENE) 22:40:11 437.445
PRISM 30 Sep 22:33:57 22:37:46 36° 292° (WNW) 22:41:33 437.425
VELOX 1 30 Sep 22:37:50 22:41:07 21° 62° (ENE) 22:44:24 145.980
50 SAT 30 Sep 22:40:40 22:42:59 16° 63° (ENE) 22:45:18 437.505
RS-15 30 Sep 22:51:08 23:02:14 41° 337° (NNW) 23:13:43 29.354- 29.394
ESTCUBE 1 30 Sep 22:51:12 22:55:34 50° 71° (ENE) 22:59:59 437.505/2401.250
HUMSAT D 30 Sep 22:55:36 22:59:04 26° 266° (W) 23:02:35 437.325/437.525
ANTELSAT 30 Sep 22:57:41 23:02:04 59° 101° (E) 23:06:32 437.575/2403.000
SPROUT 30 Sep 22:59:14 23:02:08 18° 62° (ENE) 23:05:03 437.525
AUBIESAT-1 30 Sep 23:03:37 23:06:48 25° 62° (ENE) 23:09:50 437.475
POPSAT HIP 1 30 Sep 23:12:19 23:13:54 12° 88° (E) 23:15:29 437.405
TIGRISAT 30 Sep 23:17:16 23:21:42 88° 107° (ESE) 23:26:13 435.000
UKube-1 30 Sep 23:19:15 23:22:51 26° 65° (ENE) 23:26:26 .
NANOSAT C BR1 30 Sep 23:25:28 23:28:03 16° 91° (E) 23:30:37 145.865
SO-50 30 Sep 23:27:54 23:32:26 59° 237° (WSW) 23:36:50 436.795
AISAT 30 Sep 23:29:29 23:33:54 65° 72° (ENE) 23:38:18 437.250
M-CUBED/EXP-1 PRIME 30 Sep 23:43:03 23:47:03 84° 73° (ENE) 23:50:46 437.505
JAS-2 30 Sep 23:46:43 23:53:44 34° 91° (E) 00:00:23 435.910
ISS 30 Sep 23:49:31 23:52:43 46° 15° (NNE) 23:55:54 145.825
BEESAT 2 30 Sep 23:49:45 23:51:32 13° 110° (ESE) 23:53:19 435.950
QB50P2 30 Sep 23:51:11 23:55:00 32° 97° (E) 23:58:49 145.880/145.840
POLYITAN 1 30 Sep 23:53:21 23:57:10 32° 96° (E) 00:00:59 437.675
DX 1 30 Sep 23:53:24 23:57:45 71° 73° (ENE) 00:02:08 434.975-435.025
Cosmos 2491 30 Sep 23:56:32 00:03:06 22° 57° (ENE) 00:09:36 435.465 / 435.565
UNISAT 6 30 Sep 23:59:21 00:03:21 35° 292° (WNW) 00:07:26 437.425
TISAT 1 01 Oct 00:07:24 00:10:26 20° 63° (ENE) 00:13:28 437.305
CUBEBUG 1 01 Oct 00:08:36 00:12:48 42° 261° (W) 00:17:00 437.445
50 SAT 01 Oct 00:12:40 00:16:09 43° 261° (W) 00:19:40 437.505
VELOX 1 01 Oct 00:12:57 00:17:15 49° 260° (W) 00:21:36 145.980
BUGSAT 1 01 Oct 00:15:35 00:18:35 20° 93° (E) 00:21:35 437.445
BEESAT 3 01 Oct 00:22:27 00:26:14 51° 122° (ESE) 00:30:05 437.485
DUCHIFAT 1 01 Oct 00:26:14 00:30:24 62° 102° (ESE) 00:34:33 145.980
ESTCUBE 1 01 Oct 00:29:21 00:32:39 20° 269° (W) 00:35:58 437.505/2401.250
QB50P1 01 Oct 00:32:04 00:36:19 82° 105° (ESE) 00:40:32 145.935-145.965
SPROUT 01 Oct 00:33:33 00:37:43 52° 260° (W) 00:41:54 437.525
ANTELSAT 01 Oct 00:35:27 00:38:23 18° 298° (WNW) 00:41:21 437.575/2403.000
AUBIESAT-1 01 Oct 00:37:46 00:41:13 29° 257° (WSW) 00:44:27 437.475
SWISSCUBE 01 Oct 00:38:57 00:41:04 13° 56° (NE) 00:43:11 437.505
POPSAT HIP 1 01 Oct 00:45:58 00:50:11 73° 286° (WNW) 00:54:24 437.405
BEESAT 01 Oct 00:50:55 00:53:34 15° 57° (ENE) 00:56:12 436.000
UKube-1 01 Oct 00:54:46 00:58:44 35° 262° (W) 01:02:45 .
TIGRISAT 01 Oct 00:55:55 00:57:46 12° 302° (WNW) 00:59:38 435.000
NANOSAT C BR1 01 Oct 01:00:00 01:04:07 54° 288° (WNW) 01:08:13 145.865
YUBILEINY 01 Oct 01:02:11 01:07:12 17° 73° (ENE) 01:12:12 435.215
RS-15 01 Oct 01:07:59 01:18:57 35° 11° (N) 01:29:59 29.354- 29.394
AISAT 01 Oct 01:08:19 01:10:48 15° 270° (W) 01:13:17 437.250
Gurwin Techsat 1B 01 Oct 01:23:19 01:25:21 12° 86° (E) 01:27:23 435.225
BEESAT 2 01 Oct 01:24:50 01:28:47 74° 308° (NW) 01:32:47 435.950
ISS 01 Oct 01:26:03 01:29:14 46° 213° (SSW) 01:32:24 145.825
QB50P2 01 Oct 01:27:09 01:30:43 27° 294° (WNW) 01:34:16 145.880/145.840
POLYITAN 1 01 Oct 01:29:19 01:32:53 27° 294° (WNW) 01:36:26 437.675
JAS-2 01 Oct 01:31:22 01:39:06 61° 292° (WNW) 01:46:28 435.910
DX 1 01 Oct 01:32:21 01:34:26 13° 271° (W) 01:36:31 434.975-435.025
Oscar 19 01 Oct 01:35:58 01:40:31 31° 95° (E) 01:45:02 437.125/150
TISAT 1 01 Oct 01:41:47 01:45:48 45° 261° (W) 01:49:50 437.305
BUGSAT 1 01 Oct 01:50:22 01:54:07 39° 290° (WNW) 01:57:52 437.445
Cosmos 2491 01 Oct 01:52:29 02:01:25 85° 82° (E) 02:10:15 435.465 / 435.565
BEESAT 3 01 Oct 02:01:00 02:04:10 23° 321° (NW) 02:07:22 437.485
ITUPSAT 1 01 Oct 02:02:15 02:06:55 59° 72° (ENE) 02:11:39 437.325
DUCHIFAT 1 01 Oct 02:03:10 02:05:38 15° 299° (WNW) 02:08:05 145.980
QB50P1 01 Oct 02:09:45 02:11:29 12° 301° (WNW) 02:13:12 145.935-145.965
SWISSCUBE 01 Oct 02:13:20 02:18:06 84° 76° (ENE) 02:22:55 437.505
BEESAT 01 Oct 02:25:56 02:30:42 83° 254° (WSW) 02:35:30 436.000
PCSat 01 Oct 02:35:03 02:37:26 13° 103° (ESE) 02:39:48 145.827
ITAMSAT 1 01 Oct 02:37:29 02:40:41 16° 89° (E) 02:43:53 435.822/435.867
AIST 2 01 Oct 02:39:23 02:42:53 27° 116° (ESE) 02:46:24 435.215
YUBILEINY 01 Oct 02:53:43 03:02:27 76° 95° (E) 03:11:11 435.215
AO-7 01 Oct 02:56:24 03:01:38 18° 87° (E) 03:06:49 29.400- 29.500
Gurwin Techsat 1B 01 Oct 03:00:46 03:06:07 83° 104° (ESE) 03:11:27 435.225
BEESAT 2 01 Oct 03:04:59 03:07:18 15° 329° (NNW) 03:09:37 435.950
Oscar 19 01 Oct 03:15:09 03:19:55 39° 294° (WNW) 03:24:39 437.125/150
CUBESAT XI-V 01 Oct 03:17:43 03:19:02 11° 55° (NE) 03:20:22 437.345
JAS-2 01 Oct 03:18:00 03:22:34 17° 313° (NW) 03:27:04 435.910
MOZHAYETS 4 01 Oct 03:21:48 03:26:20 66° 73° (ENE) 03:30:55
RS-15 01 Oct 03:22:13 03:34:31 63° 43° (NE) 03:46:38 29.354- 29.394
KKS-1 01 Oct 03:22:16 03:26:30 44° 69° (ENE) 03:30:44 437.445
AO-85 01 Oct 03:29:07 03:32:28 21° 35° (NE) 03:35:38 145.980
Cosmos 2504 01 Oct 03:32:28 03:39:29 53° 91° (E) 03:46:23 435.465 / 435.565
ITUPSAT 1 01 Oct 03:41:55 03:45:09 18° 269° (W) 03:48:26 437.325
STARS 01 Oct 03:46:27 03:50:31 39° 69° (ENE) 03:54:36 437.465
Cosmos 2491 01 Oct 03:50:43 03:57:07 23° 283° (WNW) 04:03:32 435.465 / 435.565
SWISSCUBE 01 Oct 03:54:31 03:56:32 12° 272° (W) 03:58:33 437.505
BEESAT 01 Oct 04:08:35 04:09:15 10° 274° (W) 04:09:55 436.000
CUSAT 1 01 Oct 04:12:12 04:18:14 24° 57° (ENE) 04:23:35 437.405
PCSat 01 Oct 04:14:31 04:19:56 81° 122° (ESE) 04:25:24 145.827
ITAMSAT 1 01 Oct 04:15:30 04:20:44 76° 287° (WNW) 04:25:58 435.822/435.867
AIST 2 01 Oct 04:17:21 04:21:13 38° 315° (NW) 04:25:09 435.215
AIST 1 01 Oct 04:24:55 04:28:44 30° 90° (E) 04:32:35
DANDE 01 Oct 04:33:29 04:39:18 20° 54° (NE) 04:44:56 436.750
Gurwin Techsat 1B 01 Oct 04:42:03 04:45:25 17° 303° (WNW) 04:48:45 435.225
AO-7 01 Oct 04:47:22 04:55:43 79° 107° (ESE) 05:04:02 29.400- 29.500
CUBESAT XI-V 01 Oct 04:50:53 04:55:34 74° 75° (ENE) 05:00:18 437.345
YUBILEINY 01 Oct 04:52:55 05:00:11 28° 298° (WNW) 05:07:29 435.215
KKS-1 01 Oct 04:59:53 05:03:16 21° 267° (W) 05:06:39 437.445
MOZHAYETS 4 01 Oct 05:01:18 05:03:58 15° 271° (W) 05:06:40
AO-85 01 Oct 05:09:10 05:13:21 64° 237° (WSW) 05:17:14 145.980
STARS 01 Oct 05:23:29 05:27:00 23° 266° (W) 05:30:31 437.465
Cosmos 2504 01 Oct 05:26:47 05:33:10 32° 292° (WNW) 05:39:31 435.465 / 435.565
RS-15 01 Oct 05:35:14 05:46:55 52° 248° (WSW) 05:58:22 29.354- 29.394
STRAND 1 01 Oct 05:43:25 05:46:51 19° 58° (ENE) 05:50:18 437.568
CUSAT 1 01 Oct 05:53:37 06:01:22 83° 261° (W) 06:07:42 437.405
ITAMSAT 1 01 Oct 05:56:58 05:59:21 13° 306° (NW) 06:01:44 435.822/435.867
PCSat 01 Oct 05:59:40 06:03:59 24° 323° (NW) 06:08:20 145.827
AIST 2 01 Oct 05:59:49 06:00:52 11° 337° (NNW) 06:01:53 435.215
BRITE-PL 01 Oct 06:01:17 06:05:50 44° 97° (E) 06:10:03 437.365/2234.400
AIST 1 01 Oct 06:02:33 06:06:20 28° 288° (WNW) 06:10:06
HORYU 2 01 Oct 06:06:20 06:10:50 79° 104° (ESE) 06:15:17 437.375
NOAA 15 01 Oct 06:12:57 06:17:27 28° 94° (E) 06:21:55 137.62
NOAA 18 01 Oct 06:12:58 06:16:44 19° 91° (E) 06:20:30 137.9125
DANDE 01 Oct 06:15:15 06:23:42 71° 76° (ENE) 06:31:26 436.750
CUBESAT XI-V 01 Oct 06:31:00 06:33:30 14° 272° (W) 06:36:00 437.345
LilacSat-2 01 Oct 06:39:07 06:42:43 37° 98° (E) 06:46:20 437.200
CUTE-I 01 Oct 06:40:44 06:45:47 40° 98° (E) 06:50:48 437.470
AO-7 01 Oct 06:40:55 06:47:45 30° 309° (NW) 06:54:35 29.400- 29.500
Cubesat XI-IV 01 Oct 06:41:46 06:46:49 40° 98° (E) 06:51:50 437.490
O/OREOS (USA 219) 01 Oct 06:44:42 06:49:10 59° 111° (ESE) 06:53:43 437.305
BEESAT 3 01 Oct 06:59:56 07:02:26 16° 33° (NNE) 07:04:55 437.485
GOMX 1 01 Oct 07:10:10 07:14:35 89° 286° (WNW) 07:18:46 467.674
DOVE 4 01 Oct 07:13:09 07:17:08 41° 98° (E) 07:21:03 437.250
CANX-2 01 Oct 07:16:54 07:17:55 11° 87° (E) 07:18:57 2200.000
GONETS M04 01 Oct 07:18:31 07:25:48 30° 81° (E) 07:33:06
STRAND 1 01 Oct 07:20:23 07:25:29 72° 257° (WSW) 07:30:38 437.568
CUSAT 1 01 Oct 07:37:25 07:41:58 18° 284° (WNW) 07:46:07 437.405
BRITE-PL 01 Oct 07:40:17 07:44:03 23° 298° (WNW) 07:47:35 437.365/2234.400
HORYU 2 01 Oct 07:44:28 07:46:47 14° 302° (WNW) 07:49:06 437.375
HO-68 01 Oct 07:45:54 07:51:55 28° 93° (E) 07:57:52 435.675
PRISM 01 Oct 07:51:11 07:54:38 25° 65° (ENE) 07:58:06 437.425
NOAA 15 01 Oct 07:52:22 07:57:26 45° 292° (WNW) 08:02:25 137.62
NOAA 18 01 Oct 07:52:28 07:57:56 70° 289° (WNW) 08:03:23 137.9125
RS-15 01 Oct 07:53:53 07:56:07 11° 271° (W) 07:58:20 29.354- 29.394
CINEMA 3 01 Oct 07:58:20 08:02:10 33° 97° (E) 08:06:04 145.822/145.860
DANDE 01 Oct 07:58:50 08:05:49 31° 277° (W) 08:12:21 436.750
BEESAT 2 01 Oct 08:02:38 08:06:02 25° 40° (NE) 08:09:25 435.950
COMPASS 1 01 Oct 08:08:06 08:10:44 16° 90° (E) 08:13:20 437.405
LilacSat-2 01 Oct 08:13:59 08:16:48 20° 295° (WNW) 08:19:37 437.200
CUTE-I 01 Oct 08:21:00 08:25:44 33° 296° (WNW) 08:30:27 437.470
Cubesat XI-IV 01 Oct 08:22:03 08:26:47 33° 296° (WNW) 08:31:30 437.490
Cosmos 2499 01 Oct 08:24:52 08:31:46 58° 92° (E) 08:38:43 435.465 / 435.565
O/OREOS (USA 219) 01 Oct 08:25:31 08:28:58 21° 311° (NW) 08:32:28 437.305
BEESAT 3 01 Oct 08:36:42 08:40:42 84° 52° (NE) 08:44:41 437.485
CUBEBUG 2 01 Oct 08:41:02 08:44:45 28° 95° (E) 08:48:34 437.445
SEEDS 01 Oct 08:42:35 08:46:45 51° 99° (E) 08:50:54 437.485
TIGRISAT 01 Oct 08:44:53 08:46:57 13° 59° (ENE) 08:49:01 435.000
CUTE 1.7 + AOD 2 01 Oct 08:48:00 08:52:20 82° 103° (ESE) 08:56:38 437.475
CANX-2 01 Oct 08:50:02 08:54:22 83° 286° (WNW) 08:58:40 2200.000
GOMX 1 01 Oct 08:50:37 08:51:55 11° 304° (NW) 08:53:11 467.674
UWE-3 01 Oct 08:51:22 08:54:57 24° 94° (E) 08:58:35 435.000/436.395/437.385
DOVE 4 01 Oct 08:51:30 08:54:36 20° 297° (WNW) 08:57:40 437.250
AAUSAT CUBESAT 2 01 Oct 08:54:28 08:58:24 37° 97° (E) 09:02:16 437.432
Oscar 11 01 Oct 09:03:27 09:06:43 20° 92° (E) 09:09:56 145.826/435.025
ZACube-1 01 Oct 09:12:12 09:15:53 26° 94° (E) 09:19:36 437.345
GONETS M04 01 Oct 09:13:07 09:21:55 69° 283° (WNW) 09:30:48
AIST 2 01 Oct 09:20:01 09:21:52 13° 26° (NNE) 09:23:43 435.215
UNISAT 6 01 Oct 09:24:39 09:28:27 33° 68° (ENE) 09:32:18 437.425
PRISM 01 Oct 09:26:01 09:29:48 33° 263° (W) 09:33:38 437.425
HO-68 01 Oct 09:33:04 09:40:08 65° 292° (WNW) 09:47:11 435.675
PCSat 01 Oct 09:34:55 09:35:43 10° 15° (NNE) 09:36:30 145.827
NOAA 18 01 Oct 09:35:12 09:37:39 13° 308° (NW) 09:40:05 137.9125
CINEMA 3 01 Oct 09:35:46 09:39:13 25° 294° (WNW) 09:42:42 145.822/145.860
BEESAT 2 01 Oct 09:40:11 09:44:02 45° 239° (WSW) 09:47:52 435.950
COMPASS 1 01 Oct 09:42:29 09:46:38 54° 288° (WNW) 09:50:43 437.405
DELFI C3 01 Oct 09:42:58 09:45:59 20° 92° (E) 09:48:58 145.870
PHONESAT 2.4 01 Oct 09:50:12 09:51:51 14° 162° (SSE) 09:53:30 2401.200-2431.200
QB50P1 01 Oct 09:54:59 09:56:11 11° 58° (ENE) 09:57:22 145.935-145.965
ANTELSAT 01 Oct 09:59:22 10:03:37 74° 74° (ENE) 10:07:54 437.575/2403.000
JAS-2 01 Oct 10:02:47 10:08:01 23° 52° (NE) 10:13:36 435.910
FUNcube-1 01 Oct 10:03:40 10:08:02 80° 103° (ESE) 10:12:28 145.935
POPSAT HIP 1 01 Oct 10:07:38 10:09:56 15° 60° (ENE) 10:12:14 437.405
BEESAT 3 01 Oct 10:16:28 10:17:44 11° 251° (WSW) 10:19:00 437.485
CUBEBUG 2 01 Oct 10:17:33 10:21:24 32° 292° (WNW) 10:25:19 437.445
TIGRISAT 01 Oct 10:18:51 10:23:05 74° 258° (WSW) 10:27:21 435.000
SEEDS 01 Oct 10:19:09 10:22:06 19° 297° (WNW) 10:25:03 437.485
Cosmos 2499 01 Oct 10:19:23 10:25:22 29° 294° (WNW) 10:31:25 435.465 / 435.565
NANOSAT C BR1 01 Oct 10:20:33 10:23:26 18° 62° (ENE) 10:26:19 145.865
CUTE 1.7 + AOD 2 01 Oct 10:25:40 10:27:33 13° 301° (WNW) 10:29:25 437.475
UWE-3 01 Oct 10:27:30 10:31:30 37° 290° (WNW) 10:35:35 435.000/436.395/437.385
CANX-2 01 Oct 10:28:26 10:29:30 11° 303° (WNW) 10:30:33 2200.000
AAUSAT CUBESAT 2 01 Oct 10:30:20 10:33:41 23° 295° (WNW) 10:37:00 437.432
HUMSAT D 01 Oct 10:35:00 10:39:00 38° 97° (E) 10:43:01 437.325/437.525
Oscar 11 01 Oct 10:38:53 10:43:04 45° 290° (WNW) 10:47:12 145.826/435.025
QB50P2 01 Oct 10:46:33 10:50:22 36° 69° (ENE) 10:54:14 145.880/145.840
ZACube-1 01 Oct 10:48:15 10:52:13 35° 291° (WNW) 10:56:15 437.345
POLYITAN 1 01 Oct 10:48:43 10:52:33 36° 69° (ENE) 10:56:24 437.675
AIST 2 01 Oct 10:57:13 11:01:19 50° 48° (NE) 11:05:25 435.215
UNISAT 6 01 Oct 11:01:40 11:05:14 26° 266° (W) 11:08:50 437.425
YUBILEINY 01 Oct 11:07:30 11:08:45 10° 43° (NE) 11:09:58 435.215
BUGSAT 1 01 Oct 11:08:15 11:11:23 22° 65° (ENE) 11:14:31 437.445
GONETS M04 01 Oct 11:15:13 11:20:43 17° 307° (NW) 11:26:14
PCSat 01 Oct 11:16:30 11:21:06 27° 40° (NE) 11:25:40 145.827
DELFI C3 01 Oct 11:17:13 11:20:58 38° 290° (WNW) 11:24:40 145.870
DUCHIFAT 1 01 Oct 11:20:40 11:24:47 67° 74° (ENE) 11:28:57 145.980
Oscar 19 01 Oct 11:21:12 11:22:18 11° 52° (NE) 11:23:23 437.125/150
HO-68 01 Oct 11:22:29 11:26:35 16° 314° (NW) 11:30:40 435.675
PHONESAT 2.4 01 Oct 11:24:59 11:27:22 22° 179° (S) 11:29:44 2401.200-2431.200
QB50P1 01 Oct 11:27:04 11:31:17 89° 65° (ENE) 11:35:30 145.935-145.965
50 SAT 01 Oct 11:38:48 11:40:14 12° 90° (E) 11:41:40 437.505
ANTELSAT 01 Oct 11:39:19 11:40:53 12° 272° (W) 11:42:26 437.575/2403.000
POPSAT HIP 1 01 Oct 11:41:03 11:45:13 67° 258° (WSW) 11:49:25 437.405
FUNcube-1 01 Oct 11:41:36 11:43:42 13° 300° (WNW) 11:45:49 145.935
JAS-2 01 Oct 11:45:12 11:51:59 89° 75° (ENE) 11:59:37 435.910
CUBEBUG 1 01 Oct 11:54:12 11:57:55 27° 95° (E) 12:01:36 437.445
NANOSAT C BR1 01 Oct 11:54:46 11:58:49 49° 260° (W) 12:02:54 145.865
VELOX 1 01 Oct 12:00:15 12:03:52 24° 94° (E) 12:07:27 145.980
HUMSAT D 01 Oct 12:11:01 12:14:26 24° 295° (WNW) 12:17:51 437.325/437.525
AO-7 01 Oct 12:13:04 12:15:09 11° 31° (NNE) 12:17:15 29.400- 29.500
SPROUT 01 Oct 12:16:50 12:20:05 21° 93° (E) 12:23:19 437.525
ESTCUBE 1 01 Oct 12:17:04 12:21:38 72° 103° (ESE) 12:26:09 437.505/2401.250
QB50P2 01 Oct 12:22:53 12:26:17 23° 266° (W) 12:29:42 145.880/145.840
POLYITAN 1 01 Oct 12:25:04 12:28:27 23° 266° (W) 12:31:51 437.675
AIST 2 01 Oct 12:36:18 12:39:31 21° 246° (WSW) 12:42:43 435.215
UKube-1 01 Oct 12:38:36 12:42:23 29° 96° (E) 12:46:07 .
BUGSAT 1 01 Oct 12:42:46 12:46:34 37° 262° (W) 12:50:22 437.445
Gurwin Techsat 1B 01 Oct 12:46:15 12:50:41 28° 62° (ENE) 12:55:07 435.225
AISAT 01 Oct 12:52:50 12:57:16 86° 107° (ESE) 13:01:38 437.250
M-CUBED/EXP-1 PRIME 01 Oct 12:53:41 12:56:37 29° 103° (ESE) 12:59:32 437.505
Oscar 19 01 Oct 12:55:29 13:00:36 61° 71° (ENE) 13:05:44 437.125/150
DUCHIFAT 1 01 Oct 12:59:04 13:00:56 13° 271° (W) 13:02:49 145.980
PCSat 01 Oct 12:59:34 13:04:58 67° 241° (WSW) 13:10:20 145.827
YUBILEINY 01 Oct 13:00:14 13:08:30 44° 70° (ENE) 13:16:42 435.215
PHONESAT 2.4 01 Oct 13:01:00 13:02:54 16° 195° (SSW) 13:04:48 2401.200-2431.200
Cosmos 2491 01 Oct 13:04:03 13:10:00 21° 76° (ENE) 13:15:58 435.465 / 435.565
50 SAT 01 Oct 13:10:28 13:14:05 55° 287° (WNW) 13:17:39 437.505
DX 1 01 Oct 13:14:33 13:18:55 87° 104° (ESE) 13:23:15 434.975-435.025
Cosmos 2504 01 Oct 13:20:24 13:26:12 24° 63° (ENE) 13:32:14 435.465 / 435.565
TISAT 1 01 Oct 13:22:56 13:26:08 21° 93° (E) 13:29:20 437.305
CUBEBUG 1 01 Oct 13:30:21 13:34:14 33° 293° (WNW) 13:38:05 437.445
JAS-2 01 Oct 13:33:22 13:38:07 20° 276° (W) 13:43:14 435.910
VELOX 1 01 Oct 13:36:22 13:40:26 37° 292° (WNW) 13:44:29 145.980
SO-50 01 Oct 13:45:22 13:49:05 22° 113° (ESE) 13:52:47 436.795
AUBIESAT-1 01 Oct 13:46:56 13:50:13 69° 291° (WNW) 13:53:32 437.475
SPROUT 01 Oct 13:52:11 13:56:12 41° 290° (WNW) 14:00:11 437.525
ESTCUBE 1 01 Oct 13:55:14 13:57:54 16° 301° (WNW) 14:00:33 437.505/2401.250
ITAMSAT 1 01 Oct 13:57:53 14:02:29 34° 65° (ENE) 14:07:08 435.822/435.867
AO-7 01 Oct 13:58:12 14:05:32 37° 55° (NE) 14:12:52 29.400- 29.500
ITUPSAT 1 01 Oct 14:01:41 14:03:32 12° 87° (E) 14:05:23 437.325
SWISSCUBE 01 Oct 14:11:28 14:14:39 17° 91° (E) 14:17:46 437.505
UKube-1 01 Oct 14:14:36 14:18:25 31° 294° (WNW) 14:22:12 .
BEESAT 01 Oct 14:23:42 14:27:15 20° 92° (E) 14:30:47 436.000
Gurwin Techsat 1B 01 Oct 14:25:17 14:30:24 48° 261° (W) 14:35:33 435.225
M-CUBED/EXP-1 PRIME 01 Oct 14:28:41 14:31:02 18° 300° (WNW) 14:33:22 437.505
AIST 1 01 Oct 14:30:14 14:31:37 11° 63° (ENE) 14:32:59
AISAT 01 Oct 14:31:11 14:33:04 13° 303° (WNW) 14:34:58 437.250
Oscar 19 01 Oct 14:36:34 14:40:20 20° 269° (W) 14:44:07 437.125/150
PCSat 01 Oct 14:47:00 14:47:19 10° 259° (W) 14:47:40 145.827
DX 1 01 Oct 14:52:39 14:54:28 12° 303° (WNW) 14:56:16 434.975-435.025
Cosmos 2491 01 Oct 14:56:43 15:05:32 88° 98° (E) 15:14:27 435.465 / 435.565
YUBILEINY 01 Oct 14:57:12 15:05:23 47° 272° (W) 15:13:31 435.215
TISAT 1 01 Oct 14:58:02 15:01:56 39° 291° (WNW) 15:05:49 437.305
O/OREOS (USA 219) 01 Oct 15:12:47 15:16:41 26° 53° (NE) 15:20:33 437.305
Cosmos 2504 01 Oct 15:12:56 15:20:24 80° 264° (W) 15:28:24 435.465 / 435.565
MOZHAYETS 4 01 Oct 15:15:30 15:17:33 13° 87° (E) 15:19:36
SO-50 01 Oct 15:24:27 15:29:13 59° 312° (NW) 15:33:57 436.795
HORYU 2 01 Oct 15:33:12 15:35:29 14° 58° (ENE) 15:37:47 437.375
ITAMSAT 1 01 Oct 15:37:10 15:41:55 36° 263° (W) 15:46:43 435.822/435.867
ITUPSAT 1 01 Oct 15:37:11 15:42:02 88° 286° (WNW) 15:46:51 437.325
BRITE-PL 01 Oct 15:38:54 15:41:32 14° 56° (NE) 15:44:07 437.365/2234.400
SWISSCUBE 01 Oct 15:48:05 15:52:51 63° 288° (WNW) 15:57:35 437.505
AO-7 01 Oct 15:49:41 15:57:54 64° 256° (WSW) 16:06:10 29.400- 29.500
BEESAT 01 Oct 16:00:40 16:05:20 53° 290° (WNW) 16:10:00 436.000
NOAA 15 01 Oct 16:01:00 16:02:12 11° 51° (NE) 16:03:22 137.62
AIST 1 01 Oct 16:05:33 16:09:52 82° 263° (W) 16:14:07
CUTE-I 01 Oct 16:28:40 16:31:36 15° 55° (NE) 16:34:32 437.470
Cubesat XI-IV 01 Oct 16:29:48 16:32:47 15° 55° (NE) 16:35:46 437.490
GOMX 1 01 Oct 16:44:01 16:47:46 20° 62° (ENE) 16:51:22 467.674
CUBESAT XI-V 01 Oct 16:45:45 16:48:27 15° 88° (E) 16:51:07 437.345
KKS-1 01 Oct 16:46:16 16:50:40 58° 101° (E) 16:55:02 437.445
MOZHAYETS 4 01 Oct 16:50:38 16:55:18 80° 288° (WNW) 16:59:58
O/OREOS (USA 219) 01 Oct 16:51:54 16:56:16 43° 252° (WSW) 17:00:35 437.305
Cosmos 2491 01 Oct 16:56:50 17:03:39 24° 301° (WNW) 17:10:34 435.465 / 435.565
HORYU 2 01 Oct 17:07:03 17:11:27 78° 257° (WSW) 17:15:54 437.375
SO-50 01 Oct 17:07:39 17:10:39 16° 333° (NNW) 17:13:38 436.795
Cosmos 2504 01 Oct 17:08:27 17:12:38 16° 283° (WNW) 17:16:58 435.465 / 435.565
STARS 01 Oct 17:08:36 17:12:51 49° 100° (E) 17:17:05 437.465
BRITE-PL 01 Oct 17:13:30 17:19:09 73° 74° (ENE) 17:24:36 437.365/2234.400
ITUPSAT 1 01 Oct 17:16:48 17:19:09 14° 304° (NW) 17:21:31 437.325
CUSAT 1 01 Oct 17:17:30 17:22:08 19° 77° (ENE) 17:27:08 437.405
GONETS M04 01 Oct 17:24:04 17:29:48 18° 54° (NE) 17:35:29
LilacSat-2 01 Oct 17:24:05 17:27:21 29° 68° (ENE) 17:30:39 437.200
NOAA 15 01 Oct 17:35:41 17:40:54 59° 70° (ENE) 17:46:09 137.62
NOAA 18 01 Oct 17:41:46 17:46:58 47° 67° (ENE) 17:52:11 137.9125
AO-7 01 Oct 17:48:56 17:52:21 13° 276° (W) 17:55:47 29.400- 29.500
DANDE 01 Oct 17:49:02 17:50:34 11° 70° (ENE) 17:52:11 436.750
RS-15 01 Oct 17:52:55 18:01:17 24° 98° (E) 18:09:53 29.354- 29.394
CUTE-I 01 Oct 18:05:33 18:10:52 85° 74° (ENE) 18:16:14 437.470
Cubesat XI-IV 01 Oct 18:06:46 18:12:05 86° 74° (ENE) 18:17:27 437.490
ISS 01 Oct 18:11:01 18:11:03 10° 132° (SE) 18:11:04 145.825
Cosmos 2499 01 Oct 18:11:10 18:17:23 26° 64° (ENE) 18:23:55 435.465 / 435.565
CUTE 1.7 + AOD 2 01 Oct 18:11:21 18:12:18 11° 57° (ENE) 18:13:16 437.475
CANX-2 01 Oct 18:12:29 18:14:20 13° 59° (ENE) 18:16:11 2200.000
HO-68 01 Oct 18:18:05 18:24:07 31° 57° (ENE) 18:30:11 435.675
GOMX 1 01 Oct 18:20:12 18:25:27 64° 259° (W) 18:30:26 467.674
DOVE 4 01 Oct 18:20:48 18:25:38 63° 74° (ENE) 18:30:11 437.250
CUBESAT XI-V 01 Oct 18:21:38 18:26:19 68° 287° (WNW) 18:30:57 437.345
KKS-1 01 Oct 18:23:51 18:26:49 18° 299° (WNW) 18:29:46 437.445
MOZHAYETS 4 01 Oct 18:30:03 18:31:42 12° 304° (NW) 18:33:20
STARS 01 Oct 18:45:42 18:48:53 20° 298° (WNW) 18:52:05 437.465
BRITE-PL 01 Oct 18:54:10 18:58:04 19° 271° (W) 19:01:54 437.365/2234.400
CUSAT 1 01 Oct 18:55:58 19:02:49 83° 98° (E) 19:10:49 437.405
LilacSat-2 01 Oct 18:58:36 19:01:40 23° 266° (W) 19:04:45 437.200
COMPASS 1 01 Oct 19:01:56 19:04:38 17° 62° (ENE) 19:07:23 437.405
CINEMA 3 01 Oct 19:02:46 19:06:55 44° 71° (ENE) 19:10:56 145.822/145.860
NOAA 15 01 Oct 19:17:04 19:21:03 21° 268° (W) 19:25:06 137.62
GONETS M04 01 Oct 19:19:38 19:28:30 73° 78° (ENE) 19:37:13
NOAA 18 01 Oct 19:23:12 19:27:50 28° 266° (W) 19:32:29 137.9125
DANDE 01 Oct 19:25:39 19:31:21 61° 93° (E) 19:38:42 436.750
AO-85 01 Oct 19:26:14 19:30:09 22° 114° (ESE) 19:33:55 145.980
STRAND 1 01 Oct 19:28:01 19:32:36 31° 95° (E) 19:37:08 437.568
FUNcube-1 01 Oct 19:29:45 19:30:34 10° 57° (ENE) 19:31:24 145.935
SEEDS 01 Oct 19:36:51 19:40:56 51° 72° (ENE) 19:45:05 437.485
CUBEBUG 2 01 Oct 19:42:12 19:45:53 32° 68° (ENE) 19:49:35 437.445
CUTE 1.7 + AOD 2 01 Oct 19:43:10 19:47:24 84° 78° (ENE) 19:51:43 437.475
ISS 01 Oct 19:43:44 19:46:57 59° 149° (SSE) 19:50:10 145.825
CANX-2 01 Oct 19:45:18 19:49:34 82° 259° (WSW) 19:53:52 2200.000
AAUSAT CUBESAT 2 01 Oct 19:47:20 19:51:10 36° 69° (ENE) 19:55:02 437.432
CUTE-I 01 Oct 19:48:50 19:51:37 14° 272° (W) 19:54:25 437.470
Cubesat XI-IV 01 Oct 19:50:08 19:52:52 14° 273° (W) 19:55:37 437.490
UWE-3 01 Oct 19:51:31 19:55:00 27° 67° (ENE) 19:58:31 435.000/436.395/437.385
RS-15 01 Oct 20:00:04 20:11:45 81° 122° (ESE) 20:24:02 29.354- 29.394
DOVE 4 01 Oct 20:00:36 20:03:40 17° 269° (W) 20:06:40 437.250
Oscar 11 01 Oct 20:01:07 20:04:31 23° 64° (ENE) 20:07:57 145.826/435.025
CUBESAT XI-V 01 Oct 20:02:17 20:02:48 10° 305° (NW) 20:03:20 437.345
Cosmos 2499 01 Oct 20:03:37 20:11:12 74° 265° (W) 20:19:22 435.465 / 435.565
HO-68 01 Oct 20:04:17 20:11:24 65° 257° (WSW) 20:18:33 435.675
ZACube-1 01 Oct 20:11:07 20:14:38 28° 67° (ENE) 20:18:12 437.345
DELFI C3 01 Oct 20:31:51 20:34:42 19° 64° (ENE) 20:37:34 145.870
SO-50 01 Oct 20:33:19 20:35:45 14° 23° (NNE) 20:38:10 436.795
COMPASS 1 01 Oct 20:35:41 20:39:47 55° 260° (W) 20:43:57 437.405
CUSAT 1 01 Oct 20:40:05 20:45:53 26° 302° (WNW) 20:52:16 437.405
CINEMA 3 01 Oct 20:41:06 20:44:16 19° 268° (W) 20:47:23 145.822/145.860
